Time,TemperatureF,DewpointF,PressureIn,WindDirection,WindDirectionDegrees,WindSpeedMPH,WindSpeedGustMPH,Humidity,HourlyPrecipIn,Conditions,Clouds,dailyrainin,SoftwareType,DateUTC
2013-11-03 01:03:00,28.0,-99.9,29.81,NNE,22,4.0,15.0,0,-99.99,,,0.00,,2013-11-03 05:03:00,
2013-11-03 01:44:00,28.0,-99.9,29.81,NNE,22,4.0,15.0,0,-99.99,,,0.00,,2013-11-03 05:44:00,
2013-11-03 01:53:00,28.0,-99.9,29.81,NNE,22,4.0,15.0,0,-99.99,,,0.00,,2013-11-03 05:53:00,
2013-11-03 01:43:00,27.0,-99.9,29.83,NW,315,6.0,12.0,0,-99.99,,,0.00,,2013-11-03 06:43:00,
2013-11-03 01:53:00,27.0,-99.9,29.83,NW,315,6.0,12.0,0,-99.99,,,0.00,,2013-11-03 06:53:00,
2013-11-03 02:02:00,27.0,-99.9,29.83,NW,315,6.0,12.0,0,-99.99,,,0.00,,2013-11-03 07:02:00,
2013-11-03 02:42:00,26.0,-99.9,29.85,NNW,337,7.0,13.0,0,-99.99,,,0.00,,2013-11-03 07:42:00,
2013-11-03 02:52:00,26.0,-99.9,29.85,NNW,337,7.0,13.0,0,-99.99,,,0.00,,2013-11-03 07:52:00,
2013-11-03 03:02:00,26.0,-99.9,29.85,NNW,337,7.0,13.0,0,-99.99,,,0.00,,2013-11-03 08:02:00,
2013-11-03 03:42:00,26.0,-99.9,29.87,WNW,292,9.0,14.0,0,-99.99,,,0.00,,2013-11-03 08:42:00,
2013-11-03 03:52:00,26.0,-99.9,29.87,WNW,292,9.0,14.0,0,-99.99,,,0.00,,2013-11-03 08:52:00,
2013-11-03 04:02:00,26.0,-99.9,29.87,WNW,292,9.0,14.0,0,-99.99,,,0.00,,2013-11-03 09:02:00,
2013-11-03 04:03:00,24.0,-99.9,29.91,WNW,292,4.0,14.0,0,-99.99,,,0.00,,2013-11-03 09:03:00,
2013-11-03 04:42:00,24.0,-99.9,29.91,WNW,292,4.0,14.0,0,-99.99,,,0.00,,2013-11-03 09:42:00,
2013-11-03 04:53:00,24.0,-99.9,29.91,WNW,292,4.0,14.0,0,-99.99,,,0.00,,2013-11-03 09:53:00,
2013-11-03 05:53:00,23.0,-99.9,29.91,NW,315,5.0,10.0,0,-99.99,,,0.00,,2013-11-03 10:53:00,
2013-11-03 06:02:00,23.0,-99.9,29.91,NW,315,5.0,10.0,0,-99.99,,,0.00,,2013-11-03 11:02:00,
2013-11-03 06:43:00,22.0,-99.9,29.93,NW,315,4.0,10.0,0,-99.99,,,0.00,,2013-11-03 11:43:00,
2013-11-03 06:52:00,22.0,-99.9,29.93,NW,315,4.0,10.0,0,-99.99,,,0.00,,2013-11-03 11:52:00,
2013-11-03 07:02:00,22.0,-99.9,29.93,NW,315,4.0,10.0,0,-99.99,,,0.00,,2013-11-03 12:02:00,
2013-11-03 07:42:00,23.0,-99.9,29.97,WNW,292,6.0,8.0,0,-99.99,,,0.00,,2013-11-03 12:42:00,
2013-11-03 07:52:00,23.0,-99.9,29.97,WNW,292,6.0,8.0,0,-99.99,,,0.00,,2013-11-03 12:52:00,
2013-11-03 08:02:00,23.0,-99.9,29.97,WNW,292,6.0,8.0,0,-99.99,,,0.00,,2013-11-03 13:02:00,
2013-11-03 08:42:00,27.0,-99.9,30.01,NNW,337,4.0,12.0,0,-99.99,,,0.00,,2013-11-03 13:42:00,
2013-11-03 08:52:00,27.0,-99.9,30.01,NNW,337,4.0,12.0,0,-99.99,,,0.00,,2013-11-03 13:52:00,
2013-11-03 09:02:00,27.0,-99.9,30.01,NNW,337,4.0,12.0,0,-99.99,,,0.00,,2013-11-03 14:02:00,
2013-11-03 09:42:00,29.0,-99.9,30.03,NW,315,3.0,23.0,0,-99.99,,,0.00,,2013-11-03 14:42:00,
2013-11-03 09:52:00,29.0,-99.9,30.03,NW,315,3.0,23.0,0,-99.99,,,0.00,,2013-11-03 14:52:00,
2013-11-03 10:02:00,29.0,-99.9,30.03,NW,315,3.0,23.0,0,-99.99,,,0.00,,2013-11-03 15:02:00,
2013-11-03 10:03:00,31.0,-99.9,30.04,NNE,22,9.0,22.0,0,-99.99,,,0.00,,2013-11-03 15:03:00,
2013-11-03 10:53:00,31.0,-99.9,30.04,NNE,22,9.0,22.0,0,-99.99,,,0.00,,2013-11-03 15:53:00,
2013-11-03 11:03:00,31.0,-99.9,30.05,NNE,22,5.0,21.0,0,-99.99,,,0.00,,2013-11-03 16:03:00,
2013-11-03 11:43:00,31.0,-99.9,30.05,NNE,22,5.0,21.0,0,-99.99,,,0.00,,2013-11-03 16:43:00,
2013-11-03 11:53:00,31.0,-99.9,30.05,NNE,22,5.0,21.0,0,-99.99,,,0.00,,2013-11-03 16:53:00,
2013-11-03 12:44:00,33.0,-99.9,30.05,East,90,5.0,20.0,0,-99.99,,,0.00,,2013-11-03 17:44:00,
2013-11-03 12:53:00,33.0,-99.9,30.05,East,90,5.0,20.0,0,-99.99,,,0.00,,2013-11-03 17:53:00,
2013-11-03 13:02:00,33.0,-99.9,30.05,East,90,5.0,20.0,0,-99.99,,,0.00,,2013-11-03 18:02:00,
2013-11-03 13:42:00,34.0,-99.9,30.06,North,360,6.0,21.0,0,-99.99,,,0.00,,2013-11-03 18:42:00,
2013-11-03 13:52:00,34.0,-99.9,30.06,North,360,6.0,21.0,0,-99.99,,,0.00,,2013-11-03 18:52:00,
2013-11-03 14:02:00,34.0,-99.9,30.06,North,360,6.0,21.0,0,-99.99,,,0.00,,2013-11-03 19:02:00,
2013-11-03 14:42:00,35.0,-99.9,30.08,NE,45,6.0,19.0,0,-99.99,,,0.00,,2013-11-03 19:42:00,
2013-11-03 14:53:00,35.0,-99.9,30.08,NE,45,6.0,19.0,0,-99.99,,,0.00,,2013-11-03 19:53:00,
2013-11-03 15:02:00,35.0,-99.9,30.08,NE,45,6.0,19.0,0,-99.99,,,0.00,,2013-11-03 20:02:00,
2013-11-03 15:42:00,33.0,-99.9,30.11,NNW,337,6.0,21.0,0,-99.99,,,0.00,,2013-11-03 20:42:00,
2013-11-03 15:52:00,33.0,-99.9,30.11,NNW,337,6.0,21.0,0,-99.99,,,0.00,,2013-11-03 20:52:00,
2013-11-03 16:02:00,33.0,-99.9,30.11,NNW,337,6.0,21.0,0,-99.99,,,0.00,,2013-11-03 21:02:00,
2013-11-03 16:03:00,31.0,-99.9,30.13,ENE,67,0.0,18.0,0,-99.99,,,0.00,,2013-11-03 21:03:00,
2013-11-03 16:43:00,31.0,-99.9,30.13,ENE,67,0.0,18.0,0,-99.99,,,0.00,,2013-11-03 21:43:00,
2013-11-03 16:55:00,31.0,-99.9,30.13,ENE,67,0.0,18.0,0,-99.99,,,0.00,,2013-11-03 21:55:00,
2013-11-03 17:03:00,30.0,-99.9,30.16,North,360,7.0,14.0,0,-99.99,,,0.00,,2013-11-03 22:03:00,
2013-11-03 17:43:00,30.0,-99.9,30.16,North,360,7.0,14.0,0,-99.99,,,0.00,,2013-11-03 22:43:00,
2013-11-03 17:52:00,30.0,-99.9,30.16,North,360,7.0,14.0,0,-99.99,,,0.00,,2013-11-03 22:52:00,
2013-11-03 18:42:00,28.0,-99.9,30.20,NW,315,5.0,11.0,0,-99.99,,,0.00,,2013-11-03 23:42:00,
2013-11-03 18:53:00,28.0,-99.9,30.20,NW,315,5.0,11.0,0,-99.99,,,0.00,,2013-11-03 23:53:00,
2013-11-03 19:02:00,28.0,-99.9,30.20,NW,315,5.0,11.0,0,-99.99,,,0.00,,2013-11-04 00:02:00,
2013-11-03 19:42:00,27.0,-99.9,30.22,NNW,337,5.0,9.0,0,-99.99,,,0.00,,2013-11-04 00:42:00,
2013-11-03 19:52:00,27.0,-99.9,30.22,NNW,337,5.0,9.0,0,-99.99,,,0.00,,2013-11-04 00:52:00,
2013-11-03 20:02:00,27.0,-99.9,30.22,NNW,337,5.0,9.0,0,-99.99,,,0.00,,2013-11-04 01:02:00,
2013-11-03 20:42:00,26.0,-99.9,30.24,NW,315,5.0,10.0,0,-99.99,,,0.00,,2013-11-04 01:42:00,
2013-11-03 20:52:00,26.0,-99.9,30.24,NW,315,5.0,10.0,0,-99.99,,,0.00,,2013-11-04 01:52:00,
2013-11-03 21:02:00,26.0,-99.9,30.24,NW,315,5.0,10.0,0,-99.99,,,0.00,,2013-11-04 02:02:00,
2013-11-03 21:42:00,24.0,-99.9,30.27,NNW,337,5.0,8.0,0,-99.99,,,0.00,,2013-11-04 02:42:00,
2013-11-03 21:53:00,24.0,-99.9,30.27,NNW,337,5.0,8.0,0,-99.99,,,0.00,,2013-11-04 02:53:00,
2013-11-03 22:02:00,24.0,-99.9,30.27,NNW,337,5.0,8.0,0,-99.99,,,0.00,,2013-11-04 03:02:00,
2013-11-03 22:03:00,25.0,-99.9,30.29,NNW,337,6.0,8.0,0,-99.99,,,0.00,,2013-11-04 03:03:00,
2013-11-03 22:44:00,25.0,-99.9,30.29,NNW,337,6.0,8.0,0,-99.99,,,0.00,,2013-11-04 03:44:00,
2013-11-03 22:54:00,25.0,-99.9,30.29,NNW,337,6.0,8.0,0,-99.99,,,0.00,,2013-11-04 03:54:00,
2013-11-03 23:03:00,24.0,-99.9,30.29,NNW,337,5.0,8.0,0,-99.99,,,0.00,,2013-11-04 04:03:00,
2013-11-03 23:43:00,24.0,-99.9,30.29,NNW,337,5.0,8.0,0,-99.99,,,0.00,,2013-11-04 04:43:00,
2013-11-03 23:53:00,24.0,-99.9,30.29,NNW,337,5.0,8.0,0,-99.99,,,0.00,,2013-11-04 04:53:00,